Miscellaneous Local Product
Issued by NWS North Platte, NE

Home | Current Version | Previous Version | Text Only | Print | Product List | Glossary On
Versions: 1 2 3 4 5 6 7 8 9 10 11 12 13 14 15 16 17 18 19 20 21 22 23 24 25 26 27 28 29 30 31 32 33 34 35 36 37 38 39 40 41 42 43 44 45 46 47 48 49 50
000
AXUS43 KLBF 170610
MISLBF


WESTERN AND NORTH CENTRAL NEBRASKA HOURLY WEATHER ROUNDUP
NATIONAL WEATHER SERVICE NORTH PLATTE NE
1200 AM CST SUN DEC 17 2017

NOTE: "FAIR" INDICATES FEW OR NO CLOUDS BELOW 12,000 FEET WITH NO
SIGNIFICANT WEATHER AND/OR OBSTRUCTIONS TO VISIBILITY.

NOTE: STATIONS NOT REPORTING VARIABLES SUCH AS SKY/WEATHER OR
PRESSURE ARE PROVIDED BY RAWS AND APRS NETWORKS AND ARE NOT UNDER
NATIONAL WEATHER SERVICE QUALITY CONTROL.

...OBSERVATIONS IN AND NEAR THE EASTERN PANHANDLE OF NEBRASKA...

CITY           SKY/WX    TMP DP  RH WIND       PRES   REMARKS
PINE RIDGE     CLOUDY    30  25  81 E3        30.04R
GORDON         CLOUDY    32  29  88 NE3       30.02F
CHADRON        CLOUDY    30  26  85 CALM      30.05R
ALLIANCE       CLOUDY    31  27  85 NE10      30.00S WCI  22
SIDNEY         CLOUDY    31  29  92 NE8       29.98R FOG     WCI  23
CRESCENT LAKE    N/A     31  28  89 NE7G14      N/A  WCI  24
$$

...OBSERVATIONS IN NORTHERN NEBRASKA AND FAR SOUTHERN SOUTH DAKOTA...

CITY           SKY/WX    TMP DP  RH WIND       PRES   REMARKS
WINNER         CLOUDY    34  30  85 NW3       30.07R
VALENTINE      CLOUDY    36  31  82 NE9       30.04S WCI  29
THEDFORD       CLOUDY    36  32  85 NE8       30.02S WCI  30
AINSWORTH      CLOUDY    35  33  93 N6        30.03S WCI  30
O`NEILL        CLOUDY    35  35 100 NE7       30.05R WCI  29
ORD            CLOUDY    36  33  89 N10       30.01S WCI  28
BROKEN BOW     CLOUDY    38  32  79 NE14      29.99R WCI  30
VALENTINE NWR    N/A     34  30  86 NE6         N/A  WCI  29
HALSEY           N/A     35  32  88 N6          N/A  WCI  30
BUTTE            N/A     36  33  88 N3          N/A
EWING            N/A     33  31  94 NE3         N/A
$$

...OBSERVATIONS IN SOUTHWEST NEBRASKA AND FAR NORTHEAST COLORADO...

CITY           SKY/WX    TMP DP  RH WIND       PRES   REMARKS
WRAY           CLOUDY    34  32  93 N9        29.95F WCI  26
HOLYOKE        CLOUDY    36  32  87 NE13      29.98R WCI  27
IMPERIAL       CLOUDY    36  33  89 N16       29.96F WCI  26
OGALLALA       CLOUDY    37  32  84 NE10      30.00R WCI  29
NORTH PLATTE   CLOUDY    37  33  85 NE16G24   29.98R WCI  28
MCCOOK         CLOUDY    35  32  88 NE21G30   29.90F WCI  24
LEXINGTON      CLOUDY    35  32  88 N9        29.95F WCI  28
STAPLETON        N/A     34  30  86 NE8         N/A  WCI  27
GOTHENBURG       N/A     37  32  82 N10         N/A  WCI  30
CALLAWAY         N/A     36  33  88 NE9         N/A  WCI  29
$$

...OBSERVATIONS IN CENTRAL LINCOLN COUNTY AREA...

CITY           SKY/WX    TMP DP  RH WIND       PRES   REMARKS
N.P. AIRPORT   CLOUDY    37  33  85 NE16G24   29.98R WCI  28
N.P. DOWNTOWN    N/A     36  33  88 NE9         N/A  WCI  29
N.P. SOUTHEAST   N/A     36  32  87 N7          N/A  WCI  30
N.P. HILLCREST   N/A     36  33  90 NE16G24     N/A  WCI  26
$$

...SOME OBSERVATIONS FROM AROUND THE REGION...

CITY           SKY/WX    TMP DP  RH WIND       PRES   REMARKS
DENVER         CLOUDY    29  25  85 E6        29.94S WCI  23
GRAND JUNCTION CLOUDY    23   6  48 CALM      29.90R
LARAMIE        CLOUDY    24  22  91 SE16      29.87R WCI  11
CHEYENNE       FOG       26  26 100 E6        29.93S VSB 1/4 WCI  19
CASPER         LGT SNOW  24  22  91 N9        29.97R FOG     WCI  14
BISMARCK       PTCLDY    27  24  89 SW5       30.08R WCI  22
RAPID CITY     CLOUDY    32  23  69 NW10      30.06S WCI  24
PIERRE         CLOUDY    32  31  96 NW5       30.07R WCI  27
SIOUX FALLS    CLOUDY    28  27  96 NE6       30.06R WCI  22
OMAHA          CLOUDY    35  26  69 N13       29.98F WCI  26
GRAND ISLAND   PTCLDY    32  30  92 N17       29.94F WCI  21
SCOTTSBLUFF    CLOUDY    33  27  78 E10       30.01S WCI  25
KANSAS CITY    CLOUDY    48  27  44 S12       29.96S
HILL CITY      CLOUDY    37  29  72 NE14      29.89R WCI  28
WICHITA        LGT RAIN  45  41  86 S16G25    29.94S
DODGE CITY     CLOUDY    46  27  47 S14       29.84R
OKLAHOMA CITY  DRIZZLE   42  41  96 S18       29.99R FOG
DALLAS         CLOUDY    45  43  93 SE10      30.03S
AMARILLO       MOCLDY    36  34  92 S13       29.82S WCI  27
$$




USA.gov is the U.S. government's official web portal to all federal, state and local government web resources and services.